Time,TemperatureF,DewpointF,PressureIn,WindDirection,WindDirectionDegrees,WindSpeedMPH,WindSpeedGustMPH,Humidity,HourlyPrecipIn,Conditions,Clouds,dailyrainin,SoftwareType,DateUTC
2013-05-19 00:08:00,60.1,47.0,30.10,North,358,2.0,5.0,63,0.00,,,0.00,weatherlink.com 1.10,2013-05-19 07:08:00,
2013-05-19 00:23:00,59.7,47.0,30.10,NNW,345,5.0,6.0,64,0.00,,,0.00,weatherlink.com 1.10,2013-05-19 07:23:00,
2013-05-19 00:38:00,59.3,47.0,30.10,NNE,15,2.0,9.0,64,0.00,,,0.00,weatherlink.com 1.10,2013-05-19 07:38:00,
2013-05-19 00:53:00,59.0,47.0,30.10,NNW,327,3.0,7.0,65,0.00,,,0.00,weatherlink.com 1.10,2013-05-19 07:53:00,
2013-05-19 01:08:00,58.7,47.0,30.10,NNE,23,4.0,9.0,66,0.00,,,0.00,weatherlink.com 1.10,2013-05-19 08:08:00,
2013-05-19 01:23:00,58.4,47.0,30.10,NW,326,1.0,5.0,67,0.00,,,0.00,weatherlink.com 1.10,2013-05-19 08:23:00,
2013-05-19 01:38:00,57.3,47.0,30.10,East,84,0.0,1.0,68,0.00,,,0.00,weatherlink.com 1.10,2013-05-19 08:38:00,
2013-05-19 01:54:00,56.7,47.0,30.10,East,82,2.0,2.0,70,0.00,,,0.00,weatherlink.com 1.10,2013-05-19 08:54:00,
2013-05-19 02:09:00,56.8,47.0,30.09,NE,52,2.0,2.0,70,0.00,,,0.00,weatherlink.com 1.10,2013-05-19 09:09:00,
2013-05-19 02:24:00,56.7,47.0,30.09,North,354,0.0,2.0,70,0.00,,,0.00,weatherlink.com 1.10,2013-05-19 09:24:00,
2013-05-19 02:39:00,56.2,47.0,30.09,SE,140,0.0,0.0,71,0.00,,,0.00,weatherlink.com 1.10,2013-05-19 09:39:00,
2013-05-19 02:54:00,55.7,47.0,30.09,SE,139,0.0,0.0,72,0.00,,,0.00,weatherlink.com 1.10,2013-05-19 09:54:00,
2013-05-19 03:09:00,55.2,47.0,30.09,SE,139,0.0,0.0,74,0.00,,,0.00,weatherlink.com 1.10,2013-05-19 10:09:00,
2013-05-19 03:24:00,55.1,47.0,30.10,SSE,156,2.0,2.0,74,0.00,,,0.00,weatherlink.com 1.10,2013-05-19 10:24:00,
2013-05-19 03:39:00,55.5,47.0,30.10,ESE,111,0.0,4.0,74,0.00,,,0.00,weatherlink.com 1.10,2013-05-19 10:39:00,
2013-05-19 03:54:00,55.8,47.0,30.10,NE,48,0.0,0.0,72,0.00,,,0.00,weatherlink.com 1.10,2013-05-19 10:54:00,
2013-05-19 04:09:00,55.7,47.0,30.10,ENE,78,0.0,0.0,72,0.00,,,0.00,weatherlink.com 1.10,2013-05-19 11:09:00,
2013-05-19 04:24:00,55.0,46.0,30.10,East,90,0.0,2.0,73,0.00,,,0.00,weatherlink.com 1.10,2013-05-19 11:24:00,
2013-05-19 04:39:00,54.8,47.0,30.10,NNE,29,3.0,3.0,74,0.00,,,0.00,weatherlink.com 1.10,2013-05-19 11:39:00,
2013-05-19 04:54:00,54.9,46.0,30.10,ENE,67,0.0,3.0,73,0.00,,,0.00,weatherlink.com 1.10,2013-05-19 11:54:00,
2013-05-19 05:09:00,54.3,46.0,30.10,ENE,77,0.0,1.0,74,0.00,,,0.00,weatherlink.com 1.10,2013-05-19 12:09:00,
2013-05-19 05:24:00,54.2,46.0,30.11,ENE,65,0.0,0.0,75,0.00,,,0.00,weatherlink.com 1.10,2013-05-19 12:24:00,
2013-05-19 05:39:00,54.0,46.0,30.11,NE,54,1.0,2.0,75,0.00,,,0.00,weatherlink.com 1.10,2013-05-19 12:39:00,
2013-05-19 05:54:00,54.0,46.0,30.11,NE,39,1.0,3.0,75,0.00,,,0.00,weatherlink.com 1.10,2013-05-19 12:54:00,
2013-05-19 06:09:00,54.0,46.0,30.11,ENE,70,1.0,2.0,75,0.00,,,0.00,weatherlink.com 1.10,2013-05-19 13:09:00,
2013-05-19 06:24:00,54.0,46.0,30.11,ENE,75,0.0,3.0,75,0.00,,,0.00,weatherlink.com 1.10,2013-05-19 13:24:00,
2013-05-19 06:54:00,57.0,47.0,30.11,NE,56,0.0,2.0,70,0.00,,,0.00,weatherlink.com 1.10,2013-05-19 13:54:00,
2013-05-19 07:09:00,58.7,47.0,30.12,East,93,0.0,0.0,66,0.00,,,0.00,weatherlink.com 1.10,2013-05-19 14:09:00,
2013-05-19 07:24:00,61.1,48.0,30.12,East,94,0.0,0.0,62,0.00,,,0.00,weatherlink.com 1.10,2013-05-19 14:24:00,
2013-05-19 07:39:00,60.0,47.0,30.12,NE,36,2.0,3.0,63,0.00,,,0.00,weatherlink.com 1.10,2013-05-19 14:39:00,
2013-05-19 07:54:00,60.9,47.0,30.12,NNW,329,2.0,5.0,61,0.00,,,0.00,weatherlink.com 1.10,2013-05-19 14:54:00,
2013-05-19 08:09:00,61.7,47.0,30.12,NNW,330,0.0,3.0,60,0.00,,,0.00,weatherlink.com 1.10,2013-05-19 15:09:00,
2013-05-19 08:24:00,62.0,47.0,30.12,NNW,332,6.0,9.0,59,0.00,,,0.00,weatherlink.com 1.10,2013-05-19 15:24:00,
2013-05-19 08:39:00,62.7,47.0,30.11,NNW,348,0.0,9.0,58,0.00,,,0.00,weatherlink.com 1.10,2013-05-19 15:39:00,
2013-05-19 08:54:00,65.0,48.0,30.12,NNE,26,2.0,4.0,54,0.00,,,0.00,weatherlink.com 1.10,2013-05-19 15:54:00,
2013-05-19 09:09:00,65.2,47.0,30.11,WSW,257,1.0,6.0,53,0.00,,,0.00,weatherlink.com 1.10,2013-05-19 16:09:00,
2013-05-19 09:24:00,67.6,48.0,30.11,NNW,342,1.0,5.0,50,0.00,,,0.00,weatherlink.com 1.10,2013-05-19 16:24:00,
2013-05-19 09:39:00,68.1,49.0,30.11,West,270,3.0,5.0,50,0.00,,,0.00,weatherlink.com 1.10,2013-05-19 16:39:00,
2013-05-19 09:55:00,70.3,48.0,30.11,West,271,2.0,5.0,46,0.00,,,0.00,weatherlink.com 1.10,2013-05-19 16:55:00,
2013-05-19 10:10:00,71.4,49.0,30.10,NW,323,3.0,4.0,45,0.00,,,0.00,weatherlink.com 1.10,2013-05-19 17:10:00,
2013-05-19 10:25:00,71.4,49.0,30.10,WNW,283,1.0,6.0,45,0.00,,,0.00,weatherlink.com 1.10,2013-05-19 17:25:00,
2013-05-19 10:40:00,73.9,49.0,30.09,SW,231,2.0,4.0,42,0.00,,,0.00,weatherlink.com 1.10,2013-05-19 17:40:00,
2013-05-19 10:55:00,75.5,49.0,30.09,WNW,293,1.0,3.0,40,0.00,,,0.00,weatherlink.com 1.10,2013-05-19 17:55:00,
2013-05-19 11:10:00,77.2,50.0,30.09,SW,214,1.0,5.0,38,0.00,,,0.00,weatherlink.com 1.10,2013-05-19 18:10:00,
2013-05-19 11:25:00,79.5,48.0,30.08,NW,311,0.0,4.0,33,0.00,,,0.00,weatherlink.com 1.10,2013-05-19 18:25:00,
2013-05-19 11:40:00,80.0,47.0,30.08,NW,326,2.0,5.0,31,0.00,,,0.00,weatherlink.com 1.10,2013-05-19 18:40:00,
2013-05-19 11:55:00,80.0,46.0,30.07,West,280,2.0,4.0,30,0.00,,,0.00,weatherlink.com 1.10,2013-05-19 18:55:00,
2013-05-19 12:10:00,80.4,44.0,30.07,NE,34,5.0,5.0,28,0.00,,,0.00,weatherlink.com 1.10,2013-05-19 19:10:00,
2013-05-19 12:25:00,82.6,43.0,30.06,WNW,295,1.0,8.0,25,0.00,,,0.00,weatherlink.com 1.10,2013-05-19 19:25:00,
2013-05-19 12:40:00,83.6,44.0,30.05,SW,222,4.0,6.0,25,0.00,,,0.00,weatherlink.com 1.10,2013-05-19 19:40:00,
2013-05-19 12:55:00,83.5,42.0,30.05,WSW,257,3.0,9.0,23,0.00,,,0.00,weatherlink.com 1.10,2013-05-19 19:55:00,
2013-05-19 13:10:00,83.8,50.0,30.04,WSW,243,2.0,9.0,31,0.00,,,0.00,weatherlink.com 1.10,2013-05-19 20:10:00,
2013-05-19 13:25:00,83.3,48.0,30.04,SSW,198,3.0,10.0,29,0.00,,,0.00,weatherlink.com 1.10,2013-05-19 20:25:00,
2013-05-19 13:40:00,82.9,49.0,30.03,WSW,245,6.0,10.0,31,0.00,,,0.00,weatherlink.com 1.10,2013-05-19 20:40:00,
2013-05-19 13:55:00,81.4,50.0,30.03,SSE,167,6.0,14.0,34,0.00,,,0.00,weatherlink.com 1.10,2013-05-19 20:55:00,
2013-05-19 14:10:00,80.6,51.0,30.03,SSW,194,7.0,15.0,35,0.00,,,0.00,weatherlink.com 1.10,2013-05-19 21:10:00,
2013-05-19 14:25:00,80.3,49.0,30.03,SW,221,12.0,17.0,34,0.00,,,0.00,weatherlink.com 1.10,2013-05-19 21:25:00,
2013-05-19 14:40:00,79.7,50.0,30.03,SW,225,10.0,17.0,36,0.00,,,0.00,weatherlink.com 1.10,2013-05-19 21:40:00,
2013-05-19 14:55:00,80.0,48.0,30.03,South,180,6.0,18.0,32,0.00,,,0.00,weatherlink.com 1.10,2013-05-19 21:55:00,
2013-05-19 15:10:00,80.5,47.0,30.02,SW,215,4.0,13.0,31,0.00,,,0.00,weatherlink.com 1.10,2013-05-19 22:10:00,
2013-05-19 15:26:00,80.8,46.0,30.02,SW,219,6.0,13.0,29,0.00,,,0.00,weatherlink.com 1.10,2013-05-19 22:26:00,
2013-05-19 15:41:00,80.6,46.0,30.02,South,188,5.0,14.0,29,0.00,,,0.00,weatherlink.com 1.10,2013-05-19 22:41:00,
2013-05-19 15:56:00,81.5,44.0,30.01,SSW,208,9.0,12.0,27,0.00,,,0.00,weatherlink.com 1.10,2013-05-19 22:56:00,
2013-05-19 16:11:00,80.9,45.0,30.01,SW,226,10.0,12.0,28,0.00,,,0.00,weatherlink.com 1.10,2013-05-19 23:11:00,
2013-05-19 16:26:00,80.9,46.0,30.00,SW,217,4.0,13.0,29,0.00,,,0.00,weatherlink.com 1.10,2013-05-19 23:26:00,
2013-05-19 16:41:00,80.7,46.0,29.99,SW,215,7.0,12.0,29,0.00,,,0.00,weatherlink.com 1.10,2013-05-19 23:41:00,
2013-05-19 16:56:00,80.9,45.0,29.99,SW,214,7.0,13.0,28,0.00,,,0.00,weatherlink.com 1.10,2013-05-19 23:56:00,
2013-05-19 17:11:00,80.6,45.0,29.98,South,186,6.0,15.0,28,0.00,,,0.00,weatherlink.com 1.10,2013-05-20 00:11:00,
2013-05-19 17:26:00,81.1,45.0,29.98,SSW,198,6.0,12.0,28,0.00,,,0.00,weatherlink.com 1.10,2013-05-20 00:26:00,
2013-05-19 17:41:00,80.8,46.0,29.98,South,179,9.0,15.0,29,0.00,,,0.00,weatherlink.com 1.10,2013-05-20 00:41:00,
2013-05-19 17:56:00,80.8,47.0,29.98,SW,218,7.0,11.0,30,0.00,,,0.00,weatherlink.com 1.10,2013-05-20 00:56:00,
2013-05-19 18:11:00,79.5,47.0,29.97,SW,224,4.0,11.0,32,0.00,,,0.00,weatherlink.com 1.10,2013-05-20 01:11:00,
2013-05-19 18:26:00,79.0,47.0,29.97,SSW,211,6.0,11.0,33,0.00,,,0.00,weatherlink.com 1.10,2013-05-20 01:26:00,
2013-05-19 18:41:00,78.5,48.0,29.97,SW,214,9.0,10.0,34,0.00,,,0.00,weatherlink.com 1.10,2013-05-20 01:41:00,
2013-05-19 18:56:00,78.0,48.0,29.97,SW,235,5.0,10.0,35,0.00,,,0.00,weatherlink.com 1.10,2013-05-20 01:56:00,
2013-05-19 19:11:00,77.5,48.0,29.96,SSW,195,4.0,8.0,36,0.00,,,0.00,weatherlink.com 1.10,2013-05-20 02:11:00,
2013-05-19 19:26:00,77.2,50.0,29.97,SSW,207,5.0,7.0,38,0.00,,,0.00,weatherlink.com 1.10,2013-05-20 02:26:00,
2013-05-19 19:41:00,76.4,51.0,29.97,SE,137,2.0,4.0,41,0.00,,,0.00,weatherlink.com 1.10,2013-05-20 02:41:00,
2013-05-19 19:56:00,74.8,51.0,29.97,WSW,239,4.0,5.0,43,0.00,,,0.00,weatherlink.com 1.10,2013-05-20 02:56:00,
2013-05-19 20:11:00,71.3,51.0,29.97,SW,233,2.0,6.0,49,0.00,,,0.00,weatherlink.com 1.10,2013-05-20 03:11:00,
2013-05-19 20:26:00,69.4,51.0,29.97,SSW,207,0.0,4.0,53,0.00,,,0.00,weatherlink.com 1.10,2013-05-20 03:26:00,
2013-05-19 20:41:00,67.9,51.0,29.97,SW,224,0.0,0.0,55,0.00,,,0.00,weatherlink.com 1.10,2013-05-20 03:41:00,
2013-05-19 20:56:00,66.4,51.0,29.98,SW,232,0.0,0.0,58,0.00,,,0.00,weatherlink.com 1.10,2013-05-20 03:56:00,
2013-05-19 21:11:00,64.7,51.0,29.98,SW,232,0.0,0.0,61,0.00,,,0.00,weatherlink.com 1.10,2013-05-20 04:11:00,
2013-05-19 21:26:00,63.3,51.0,29.98,SW,232,0.0,0.0,64,0.00,,,0.00,weatherlink.com 1.10,2013-05-20 04:26:00,
2013-05-19 21:41:00,62.3,50.0,29.99,SW,214,0.0,0.0,65,0.00,,,0.00,weatherlink.com 1.10,2013-05-20 04:41:00,
2013-05-19 21:56:00,61.8,50.0,29.99,ESE,117,0.0,0.0,65,0.00,,,0.00,weatherlink.com 1.10,2013-05-20 04:56:00,
2013-05-19 22:11:00,61.0,49.0,29.99,SSE,149,0.0,0.0,66,0.00,,,0.00,weatherlink.com 1.10,2013-05-20 05:11:00,
2013-05-19 22:26:00,60.6,50.0,30.00,SW,231,0.0,0.0,67,0.00,,,0.00,weatherlink.com 1.10,2013-05-20 05:26:00,
2013-05-19 22:41:00,60.4,50.0,30.00,NE,39,0.0,0.0,68,0.00,,,0.00,weatherlink.com 1.10,2013-05-20 05:41:00,
2013-05-19 22:56:00,60.4,50.0,30.00,NE,41,0.0,0.0,68,0.00,,,0.00,weatherlink.com 1.10,2013-05-20 05:56:00,
2013-05-19 23:11:00,59.6,49.0,30.00,NE,41,0.0,0.0,69,0.00,,,0.00,weatherlink.com 1.10,2013-05-20 06:11:00,
2013-05-19 23:26:00,59.6,50.0,29.99,NW,323,0.0,0.0,70,0.00,,,0.00,weatherlink.com 1.10,2013-05-20 06:26:00,
2013-05-19 23:41:00,60.5,50.0,29.99,NNW,336,0.0,0.0,69,0.00,,,0.00,weatherlink.com 1.10,2013-05-20 06:41:00,
2013-05-19 23:56:00,60.6,50.0,29.99,East,94,0.0,0.0,69,0.00,,,0.00,weatherlink.com 1.10,2013-05-20 06:56:00,